Juneau, WI

6:56 AM CST on December 07, 2019 (GMT -0600)
Dodge County

Weather History for KUNU - October, 2019

Change the Weather History Date:

Thursday, October 10, 2019

  Actual Average Record
Temperature  
Mean Temperature 61 °F -  
Max Temperature 70 °F 60 °F 81 °F (2010)
Min Temperature 52 °F 41 °F 23 °F (1993)
Degree Days  
Heating Degree Days 4    
Growing Degree Days 11 (Base 50)    
Moisture  
Dew Point 55 °F    
Average Humidity 83    
Maximum Humidity 98    
Minimum Humidity 61    
Precipitation  
Precipitation 0.08 in - - ()
Sea Level Pressure  
Sea Level Pressure 30.01 in    
Wind  
Wind Speed 6 mph ()    
Max Wind Speed 15 mph    
Max Gust Speed 20 mph    
Visibility 9.6 miles    
Events Rain    
Averages and records for this station are not official NWS values.
T = Trace of Precipitation, MM = Missing Value Source: Averaged Metar Reports

Daily Weather History Graph

Daily Weather History Graph

Search for Another Location

Airport or City:

Astronomy

Oct. 10, 2019 Rise Set
Actual Time 7:02 AM CDT 6:20 PM CDT
Civil Twilight 6:33 AM CDT 6:49 PM CDT
Nautical Twilight 6:00 AM CDT 7:22 PM CDT
Astronomical Twilight 5:27 AM CDT 7:55 PM CDT
Moon 5:29 PM CDT (10/10) 3:37 AM CDT (10/10)
Length of Visible Light 12h 15m
Length of Day
11h 17m
Waxing Gibbous, 91% of the Moon is Illuminated
Oct 10
Waxing Gibbous
Oct 13
Full
Oct 21
Last Quarter
Oct 27
New
Nov 4
First Quarter

Hourly Weather History & Observations

Time (CDT) Temp. Dew Point Humidity Pressure Visibility Wind Dir Wind Speed Gust Speed Precip Events Conditions
12:15 AM 55.4 °F 48.7 °F 78% 30.10 in 10.0 mi Calm Calm - N/A   Clear
12:35 AM 55.4 °F 49.1 °F 79% 30.09 in 10.0 mi East 3.5 mph - N/A   Clear
12:55 AM 54.7 °F 49.1 °F 81% 30.09 in 10.0 mi East 4.6 mph - N/A   Clear
2:35 AM 55.0 °F 50.0 °F 83% 30.10 in 10.0 mi ESE 4.6 mph - N/A   Clear
2:55 AM 55.0 °F 50.0 °F 83% 30.10 in 10.0 mi ESE 5.8 mph - N/A   Clear
3:15 AM 54.9 °F 50.2 °F 84% 30.09 in 10.0 mi East 8.1 mph - N/A   Clear
4:15 AM 55.2 °F 50.0 °F 83% 30.09 in 10.0 mi ESE 6.9 mph - N/A   Clear
5:35 AM 53.6 °F 49.5 °F 86% 30.09 in 10.0 mi East 5.8 mph - N/A   Clear
5:55 AM 52.9 °F 49.3 °F 88% 30.08 in 10.0 mi East 5.8 mph - N/A   Clear
6:15 AM 52.2 °F 49.1 °F 89% 30.07 in 10.0 mi East 5.8 mph - N/A   Clear
6:55 AM 52.2 °F 49.1 °F 89% 30.07 in 10.0 mi East 6.9 mph - N/A   Clear
7:15 AM 52.0 °F 49.1 °F 90% 30.06 in 10.0 mi East 4.6 mph - N/A   Clear
7:35 AM 52.5 °F 49.3 °F 89% 30.06 in 10.0 mi East 5.8 mph - N/A   Clear
7:55 AM 53.8 °F 49.8 °F 86% 30.05 in 10.0 mi ESE 8.1 mph - N/A   Clear
8:15 AM 54.7 °F 50.2 °F 85% 30.05 in 10.0 mi ESE 6.9 mph - N/A   Clear
8:35 AM 55.4 °F 50.2 °F 83% 30.05 in 10.0 mi ESE 6.9 mph - N/A   Scattered Clouds
8:55 AM 56.3 °F 50.9 °F 82% 30.07 in 10.0 mi ESE 6.9 mph - N/A   Clear
9:15 AM 56.7 °F 51.1 °F 82% 30.08 in 10.0 mi ESE 4.6 mph - N/A   Scattered Clouds
9:35 AM 57.4 °F 51.6 °F 81% 30.08 in 10.0 mi Calm Calm - N/A   Mostly Cloudy
9:55 AM 58.1 °F 52.0 °F 80% 30.08 in 10.0 mi Calm Calm - N/A   Overcast
10:15 AM 59.7 °F 52.9 °F 78% 30.08 in 10.0 mi ESE 5.8 mph - N/A   Mostly Cloudy
10:35 AM 60.8 °F 53.4 °F 77% 30.08 in 10.0 mi SE 6.9 mph - N/A   Scattered Clouds
10:55 AM 62.8 °F 54.1 °F 73% 30.09 in 10.0 mi SE 10.4 mph 19.6 mph N/A   Scattered Clouds
11:15 AM 63.3 °F 55.2 °F 75% 30.09 in 10.0 mi SE 6.9 mph - N/A   Scattered Clouds
11:35 AM 63.7 °F 55.4 °F 74% 30.08 in 10.0 mi SE 9.2 mph 17.3 mph N/A   Scattered Clouds
11:55 AM 65.1 °F 56.1 °F 73% 30.07 in 10.0 mi ESE 9.2 mph - N/A   Mostly Cloudy
12:15 PM 67.3 °F 56.7 °F 69% 30.04 in 10.0 mi East 11.5 mph 16.1 mph N/A   Mostly Cloudy
12:35 PM 68.2 °F 54.7 °F 62% 30.04 in 10.0 mi East 11.5 mph 18.4 mph N/A   Scattered Clouds
12:55 PM 68.0 °F 55.2 °F 64% 30.03 in 10.0 mi East 11.5 mph - N/A   Mostly Cloudy
1:15 PM 69.8 °F 55.6 °F 61% 30.01 in 10.0 mi ESE 15.0 mph - N/A   Mostly Cloudy
1:35 PM 70.2 °F 56.5 °F 62% 30.00 in 10.0 mi ESE 12.7 mph - N/A   Scattered Clouds
1:55 PM 68.7 °F 56.1 °F 64% 29.99 in 10.0 mi SE 12.7 mph 16.1 mph N/A   Scattered Clouds
2:15 PM 68.5 °F 56.7 °F 66% 29.98 in 10.0 mi ESE 6.9 mph - N/A   Scattered Clouds
2:35 PM 69.1 °F 56.8 °F 65% 29.97 in 10.0 mi ESE 11.5 mph - N/A   Clear
2:55 PM 68.7 °F 57.4 °F 67% 29.97 in 10.0 mi ESE 5.8 mph - N/A   Clear
3:15 PM 69.4 °F 57.7 °F 66% 29.96 in 10.0 mi East 6.9 mph - N/A   Clear
3:35 PM 66.4 °F 57.6 °F 73% 29.96 in 10.0 mi East 10.4 mph 16.1 mph N/A   Clear
3:55 PM 64.4 °F 56.8 °F 76% 29.96 in 10.0 mi East 10.4 mph 16.1 mph N/A   Clear
4:35 PM 62.8 °F 56.1 °F 79% 29.96 in 10.0 mi East 9.2 mph - N/A   Clear
4:55 PM 62.2 °F 56.3 °F 81% 29.96 in 10.0 mi East 9.2 mph - N/A   Scattered Clouds
5:15 PM 61.9 °F 56.3 °F 82% 29.96 in 10.0 mi ESE 6.9 mph - N/A   Overcast
5:35 PM 61.7 °F 56.7 °F 84% 29.96 in 10.0 mi ESE 6.9 mph - N/A Rain Rain
5:55 PM 60.8 °F 57.2 °F 88% 29.97 in 10.0 mi SE 8.1 mph - N/A   Drizzle
6:15 PM 60.4 °F 57.4 °F 90% 29.95 in 10.0 mi East 9.2 mph - N/A   Drizzle
6:35 PM 60.1 °F 57.4 °F 91% 29.95 in 10.0 mi ESE 8.1 mph - N/A   Overcast
7:15 PM 60.4 °F 58.1 °F 92% 29.96 in 10.0 mi SE 9.2 mph - N/A   Overcast
7:35 PM 60.4 °F 58.6 °F 94% 29.96 in 10.0 mi SE 9.2 mph - N/A   Light Drizzle
7:55 PM 60.1 °F 58.6 °F 95% 29.95 in 7.0 mi ESE 5.8 mph - N/A   Drizzle
8:15 PM 60.1 °F 59.0 °F 96% 29.95 in 7.0 mi ESE 8.1 mph - N/A   Drizzle
8:55 PM 59.9 °F 59.2 °F 97% 29.94 in 5.0 mi ESE 9.2 mph 16.1 mph 0.03 in   Drizzle
9:15 PM 59.9 °F 59.4 °F 98% 29.94 in 7.0 mi ESE 9.2 mph - N/A   Light Drizzle
9:35 PM 59.9 °F 59.4 °F 98% 29.93 in 7.0 mi East 9.2 mph - 0.02 in Rain Rain
9:55 PM 59.9 °F 59.4 °F 98% 29.93 in 7.0 mi East 8.1 mph - 0.04 in Rain Rain
10:15 PM 60.1 °F 59.4 °F 97% 29.93 in 7.0 mi ESE 4.6 mph 17.3 mph 0.01 in   Drizzle
10:35 PM 60.3 °F 59.7 °F 98% 29.92 in 7.0 mi ESE 6.9 mph - 0.01 in   Light Drizzle
10:55 PM 60.4 °F 59.5 °F 97% 29.91 in 10.0 mi ESE 10.4 mph - 0.01 in   Overcast
11:15 PM 60.4 °F 59.4 °F 96% 29.90 in 10.0 mi ESE 8.1 mph - N/A   Overcast
11:35 PM 60.6 °F 59.4 °F 96% 29.90 in 10.0 mi SE 8.1 mph - N/A   Overcast
11:55 PM 61.0 °F 59.5 °F 95% 29.89 in 10.0 mi ESE 6.9 mph - N/A   Overcast